AirNav   Air Wisconsin pilot careers
 
 715 users online  

H76 Pawhuska Municipal Airport
Pawhuska, Oklahoma, USA

GOING TO PAWHUSKA?


FAA INFORMATION EFFECTIVE 19 JULY 2018

Location

FAA Identifier: H76
Lat/Long: 36-40-18.2140N / 096-24-20.0490W
36-40.303567N / 096-24.334150W
36.6717261 / -96.4055692
(estimated)
Elevation: 1000 ft. / 304.8 m (surveyed)
Variation: 06E (1985)
From city: 4 miles W of PAWHUSKA, OK
Time zone: UTC -5 (UTC -6 during Standard Time)
Zip code: 74056

Airport Operations

Airport use: Open to the public
Activation date: 09/1945
Control tower: no
ARTCC: KANSAS CITY CENTER
FSS: MC ALESTER FLIGHT SERVICE STATION
NOTAMs facility: MLC (NOTAM-D service available)
Attendance: UNATNDD
Wind indicator: yes
Segmented circle: yes
Lights: MIRL RY 17/35 PRESET LOW INTST SS-SR; TO INCR INTST ACTVT- CTAF.
Beacon: white-green (lighted land airport)
Operates sunset to sunrise.

Airport Communications

CTAF: 122.9
WX ASOS at BVO (20 nm E): 132.675 (918-336-2070)

Nearby radio navigation aids

VOR radial/distance  VOR name  Freq  Var
BVOr234/21.0BARTLESVILLE VOR/DME117.9008E
PERr091/36.6PIONEER VORTAC113.2006E

 
NDB name  Hdg/Dist  Freq  Var  ID
WILLIAM POGUE332/32.336206EOWP --- .-- .--.

Airport Services

Parking: tiedowns
Airframe service: NONE
Powerplant service: NONE
Bottled oxygen: NONE
Bulk oxygen: NONE

Runway Information

Runway 17/35

Dimensions: 3200 x 60 ft. / 975 x 18 m
Surface: asphalt, in fair condition
Weight bearing capacity: 
Single wheel: 12.5
Runway edge lights: medium intensity
RUNWAY 17  RUNWAY 35
Traffic pattern: leftleft
Markings: basic, in good conditionbasic, in good condition

Airport Ownership and Management from official FAA records

Ownership: Publicly-owned
Owner: CITY OF PAWHUSKA
118 W. MAIN ST., PO BOX 539
PAWHUSKA, OK 74056
Phone (918) 287-3040
Manager: MIKE MCCARTNEY
CITY HALL PO BOX 539
PAWHUSKA, OK 74056
Phone 918-287-3040
CITY MANAGER.

Airport Operational Statistics

Aircraft based on the field: 6
Single engine airplanes: 5
Ultralights: 1
    
Aircraft operations: avg 30/week *
52% transient general aviation
48% local general aviation
* for 12-month period ending 25 October 2016

Instrument Procedures

There are no published instrument procedures at H76.

Some nearby airports with instrument procedures:

KBVO - Bartlesville Municipal Airport (20 nm E)
KOWP - William R Pogue Municipal Airport (32 nm S)
KPNC - Ponca City Regional Airport (34 nm W)
KTUL - Tulsa International Airport (38 nm SE)
KIDP - Independence Municipal Airport (42 nm NE)
 
Loc | Ops | Rwys | IFR | FBO | Links
Com | Nav | Svcs | Stats | Notes


 
Area around H76 (Pawhuska Municipal Airport)
 
Road maps at: MapQuest Bing Google
 
Aerial photo
WARNING: Photo may not be current or correct
Aerial photo of H76 (Pawhuska Municipal Airport)
Photo taken 19-Aug-2012
looking northwest.

Do you have a better or more recent aerial photo of Pawhuska Municipal Airport that you would like to share? If so, please send us your photo.

 
Sectional chart

 
Airport distance calculator
Flying to Pawhuska Municipal Airport? Find the distance to fly.

From to H76

Sunrise and sunset
Times for 14-Aug-2018
 Local
(UTC-5)
 Zulu
(UTC)
Morning civil twilight06:1611:16
Sunrise06:4311:43
Sunset20:1701:17
Evening civil twilight20:4501:45

Current date and time
Zulu (UTC)  15-Aug-2018 04:07:25
Local (UTC-5)  14-Aug-2018 23:07:25
 
METAR
KBVO 
20nm E 
150353Z AUTO 00000KT 9SM BKN095 BKN110 23/23 A2989 RMK AO2 LTG DSNT N AND NW RAE10 SLP110 P0000 T02330228 $
KOWP 
32nm S 
150355Z AUTO 19006KT 10SM BKN110 25/23 A2989 RMK AO2 LTG DSNT W THRU N T02540225
KPNC 
34nm W 
150353Z AUTO 24005KT 10SM FEW043 FEW090 BKN120 23/21 A2989 RMK AO2 SLP111 T02330211
KTUL 
38nm SE 
150353Z 16011KT 10SM BKN100 BKN180 26/22 A2987 RMK AO2 SLP107 T02560222
TAF
KBVO 
20nm E 
141732Z 1418/1518 20004KT P6SM VCSH BKN040 TEMPO 1418/1420 5SM -TSRA BR BKN025CB FM142000 18008KT P6SM VCSH BKN025 FM150200 17007KT P6SM VCTS BKN025CB TEMPO 1502/1506 3SM TSRA BR OVC015CB FM150600 19006KT P6SM VCSH BKN015 TEMPO 1506/1509 4SM TSRA BKN015CB FM150900 19006KT P6SM VCSH BKN015 PROB30 1509/1515 5SM -TSRA BKN015CB FM151500 24006KT P6SM BKN015
NOTAMs
Click for the latest NOTAMs
NOTAMs are issued by the DoD/FAA and will open in a separate window not controlled by AirNav.

 

 
 

Would you like to see your business listed on this page?

 If your business provides an interesting product or service to pilots, flight crews, aircraft, or users of the Pawhuska Municipal Airport, you should consider listing it here.  To start the listing process, click on the button below
 
Add a business
 

Other Pages about Pawhuska Municipal Airport

Update a link
 
Copyright © AirNav, LLC. All rights reserved. Privacy Policy  Contact